Location: Chiroubles
(46.1812°N, 4.6660°E)
Time: 16:54:13
(UTC+00:00)

Cosmos 407 Rocket - Pass Details

Date: 15 August 2020
Orbit: 744 x 786 km, 74.0° (Epoch: 23 September)

Event Time Altitude Azimuth Distance (km) Brightness Sun altitude
Rises 19:15:14 0° 200° (SSW) 3,254 6.7 -4.9°
Reaches altitude 10° 19:17:37 10° 200° (SSW) 2,326 6.0 -5.3°
Maximum altitude 19:22:55 89° 284° (WNW) 781 3.6 -6.1°
Drops below altitude 10° 19:28:13 10° 22° (NNE) 2,318 6.1 -6.9°
Sets 19:30:35 0° 22° (NNE) 3,242 6.8 -7.3°
